STARLINK-11738 [DTC]

Last updated on Thu Jul 03 2025 00:02:06 GMT+0000 (Coordinated Universal Time)

1 64375U 25127F 25183.58335648 -.00114511 00000+0 -66224-3 0 9990 2 64375 43.0004 154.8146 0001637 265.8862 210.4785 15.77915279 4094
UTC large
Height (km)
Speed (km/s)
/
Latitude / Longitude
Inclination (degrees)
Orbital Period (minutes)
Azimuth
Elevation
Range (km)
Doppler Factor

Next 0 passes for location: London (51.5072 / 0.1276)

Sorry there are no passes over London.